Location: Brno
(49.2000°N, 16.6330°E)
Time: 05:11:38
(UTC+01:00)

Iridium 2 - Visible Passes

Search period start: 25 February 2018 00:00
Search period end: 07 March 2018 00:00
Orbit: 509 x 519 km, 85.5° (Epoch: 24 February)

Date Brightness Start Highest point End Pass type
(mag) Time Alt. Az. Time Alt. Az. Time Alt. Az.
25 Feb 5.4 05:29:04 10° SSE 05:32:38 38° E 05:36:13 10° NNE visible
25 Feb 7.1 18:31:39 10° NW 18:33:48 15° W 18:35:57 10° WSW visible
26 Feb 5.9 05:13:54 10° SSE 05:17:17 30° E 05:20:41 10° NNE visible
26 Feb 6.9 18:15:51 10° NW 18:18:30 18° W 18:21:07 10° SW visible
27 Feb 6.3 04:58:49 10° SE 05:01:57 24° E 05:05:06 10° NNE visible
28 Feb 6.6 04:43:48 10° SE 04:46:37 20° E 04:49:28 10° NE visible
01 Mar 6.9 04:28:54 10° ESE 04:31:19 16° E 04:33:44 10° NE visible
02 Mar 7.1 04:14:10 10° ESE 04:16:00 13° E 04:17:50 10° NE visible
02 Mar 3.7 05:47:05 10° SSW 05:50:52 57° W 05:54:40 10° N visible
03 Mar 7.3 03:59:55 10° E 04:00:42 11° ENE 04:01:30 10° ENE visible
03 Mar 3.6 05:31:37 10° S 05:35:27 74° W 05:39:17 10° N visible
04 Mar 3.7 05:16:11 10° S 05:20:01 87° ESE 05:23:54 10° N visible
05 Mar 4.0 05:00:49 10° S 05:04:37 69° E 05:08:27 10° N visible
06 Mar 4.5 04:45:30 10° SSE 04:49:14 53° E 04:52:59 10° NNE visible
